PIMOHWEATHER Station Historical Data
Daily Summary for March 05, 2020 Units:  Metric    English   Both
Daily Weekly Monthly Yearly
  High: Low: Average:
Temperature: 34.0 °C 24.0 °C 28.5 °C
Dew Point: 25.0 °C 21.0 °C 22.3 °C
Humidity: 85% 57% 70%
Wind Speed: 23km/h 0km/h 8.2km/h
Wind Gust: 28km/h - -
Wind- - SE
Pressure: 1012.2 hPa 1007.1 hPa -
Precipitation: 0.00 mm    
 
 
Tabular Data for March 05, 2020
Time Temperature Dew Point Pressure Wind Wind Speed Wind Gust Humidity Rainfall Rate (Hourly) solar
00:04 26.0 °C 22.0 °C 1011.2 hPa Calm     78% 0.00 mm 0.00 W/m2
00:09 26.0 °C 22.0 °C 1011.5 hPa Calm     78% 0.00 mm 0.00 W/m2
00:14 26.0 °C 22.0 °C 1011.5 hPa Calm   4 km/h 79% 0.00 mm 0.00 W/m2
00:19 26.0 °C 22.0 °C 1011.5 hPa Calm     79% 0.00 mm 0.00 W/m2
00:24 26.0 °C 22.0 °C 1011.5 hPa Calm     79% 0.00 mm 0.00 W/m2
00:29 26.0 °C 22.0 °C 1011.5 hPa Calm     79% 0.00 mm 0.00 W/m2
00:34 26.0 °C 22.0 °C 1011.2 hPa Calm   4 km/h 78% 0.00 mm 0.00 W/m2
00:39 26.0 °C 22.0 °C 1011.2 hPa North 3 km/h 4 km/h 78% 0.00 mm 0.00 W/m2
00:44 26.0 °C 22.0 °C 1011.2 hPa NNW 3 km/h 4 km/h 79% 0.00 mm 0.00 W/m2
00:49 26.0 °C 22.0 °C 1011.2 hPa NW 5 km/h 8 km/h 79% 0.00 mm 0.00 W/m2
00:54 26.0 °C 22.0 °C 1011.2 hPa WNW 1 km/h 4 km/h 80% 0.00 mm 0.00 W/m2
00:59 26.0 °C 22.0 °C 1011.2 hPa NNW 5 km/h 8 km/h 80% 0.00 mm 0.00 W/m2
01:04 26.0 °C 22.0 °C 1011.2 hPa NW 4 km/h 4 km/h 80% 0.00 mm 0.00 W/m2
01:09 26.0 °C 22.0 °C 1011.2 hPa Calm     80% 0.00 mm 0.00 W/m2
01:14 26.0 °C 22.0 °C 1011.2 hPa Calm     80% 0.00 mm 0.00 W/m2
01:19 26.0 °C 22.0 °C 1011.2 hPa Calm     80% 0.00 mm 0.00 W/m2
01:24 26.0 °C 22.0 °C 1011.2 hPa Calm     80% 0.00 mm 0.00 W/m2
01:29 26.0 °C 22.0 °C 1010.8 hPa NNE 5 km/h 8 km/h 80% 0.00 mm 0.00 W/m2
01:34 26.0 °C 22.0 °C 1010.8 hPa North 5 km/h 8 km/h 80% 0.00 mm 0.00 W/m2
01:39 26.0 °C 22.0 °C 1010.8 hPa NNE 5 km/h 8 km/h 81% 0.00 mm 0.00 W/m2
01:44 26.0 °C 22.0 °C 1011.2 hPa North 3 km/h 4 km/h 81% 0.00 mm 0.00 W/m2
01:49 26.0 °C 22.0 °C 1010.8 hPa North 3 km/h 4 km/h 81% 0.00 mm 0.00 W/m2
01:54 26.0 °C 22.0 °C 1010.8 hPa NNE 4 km/h 4 km/h 81% 0.00 mm 0.00 W/m2
01:59 26.0 °C 22.0 °C 1010.8 hPa North 3 km/h 4 km/h 81% 0.00 mm 0.00 W/m2
02:04 25.0 °C 22.0 °C 1010.8 hPa NNE 2 km/h 4 km/h 81% 0.00 mm 0.00 W/m2
02:09 26.0 °C 22.0 °C 1010.8 hPa Calm   4 km/h 81% 0.00 mm 0.00 W/m2
02:14 26.0 °C 22.0 °C 1010.8 hPa Calm     81% 0.00 mm 0.00 W/m2
02:19 25.0 °C 22.0 °C 1010.8 hPa Calm     81% 0.00 mm 0.00 W/m2
02:24 25.0 °C 22.0 °C 1010.8 hPa NNW 5 km/h 8 km/h 81% 0.00 mm 0.00 W/m2
02:29 25.0 °C 22.0 °C 1010.8 hPa NNW 2 km/h 4 km/h 81% 0.00 mm 0.00 W/m2
02:34 25.0 °C 22.0 °C 1010.8 hPa NW 7 km/h 12 km/h 82% 0.00 mm 0.00 W/m2
02:39 25.0 °C 22.0 °C 1010.5 hPa North 5 km/h 8 km/h 82% 0.00 mm 0.00 W/m2
02:44 25.0 °C 22.0 °C 1010.8 hPa NNE 5 km/h 8 km/h 82% 0.00 mm 0.00 W/m2
02:49 25.0 °C 22.0 °C 1010.8 hPa NNW 3 km/h 4 km/h 81% 0.00 mm 0.00 W/m2
02:54 25.0 °C 22.0 °C 1010.5 hPa NNE 3 km/h 4 km/h 81% 0.00 mm 0.00 W/m2
02:59 25.0 °C 22.0 °C 1010.5 hPa North 4 km/h 4 km/h 81% 0.00 mm 0.00 W/m2
03:04 25.0 °C 21.0 °C 1010.8 hPa NNE 5 km/h 8 km/h 80% 0.00 mm 0.00 W/m2
03:09 25.0 °C 21.0 °C 1010.5 hPa North 5 km/h 8 km/h 80% 0.00 mm 0.00 W/m2
03:14 25.0 °C 22.0 °C 1010.5 hPa North 3 km/h 4 km/h 81% 0.00 mm 0.00 W/m2
03:19 25.0 °C 22.0 °C 1010.5 hPa North 4 km/h 4 km/h 81% 0.00 mm 0.00 W/m2
03:24 25.0 °C 22.0 °C 1010.5 hPa North 3 km/h 4 km/h 81% 0.00 mm 0.00 W/m2
03:29 25.0 °C 22.0 °C 1010.5 hPa North 5 km/h 8 km/h 81% 0.00 mm 0.00 W/m2
03:34 25.0 °C 22.0 °C 1010.5 hPa NNE 6 km/h 8 km/h 81% 0.00 mm 0.00 W/m2
03:39 25.0 °C 21.0 °C 1010.5 hPa NNE 3 km/h 4 km/h 81% 0.00 mm 0.00 W/m2
03:44 25.0 °C 21.0 °C 1010.5 hPa NNE 3 km/h 4 km/h 81% 0.00 mm 0.00 W/m2
03:49 25.0 °C 21.0 °C 1010.8 hPa NNE 3 km/h 4 km/h 81% 0.00 mm 0.00 W/m2
03:54 25.0 °C 22.0 °C 1010.5 hPa NNE 3 km/h 4 km/h 81% 0.00 mm 0.00 W/m2
03:59 25.0 °C 22.0 °C 1010.8 hPa Calm     82% 0.00 mm 0.00 W/m2
04:04 25.0 °C 22.0 °C 1010.5 hPa North 1 km/h 4 km/h 82% 0.00 mm 0.00 W/m2
04:09 25.0 °C 22.0 °C 1010.5 hPa NNW 1 km/h 4 km/h 82% 0.00 mm 0.00 W/m2
04:14 25.0 °C 22.0 °C 1010.5 hPa North 4 km/h 4 km/h 82% 0.00 mm 0.00 W/m2
04:19 25.0 °C 21.0 °C 1010.5 hPa North 5 km/h 8 km/h 82% 0.00 mm 0.00 W/m2
04:24 25.0 °C 21.0 °C 1010.8 hPa North 6 km/h 8 km/h 82% 0.00 mm 0.00 W/m2
04:29 25.0 °C 22.0 °C 1010.8 hPa NW 6 km/h 8 km/h 83% 0.00 mm 0.00 W/m2
04:34 25.0 °C 21.0 °C 1010.8 hPa North 9 km/h 12 km/h 83% 0.00 mm 0.00 W/m2
04:39 25.0 °C 21.0 °C 1010.5 hPa North 5 km/h 8 km/h 83% 0.00 mm 0.00 W/m2
04:44 25.0 °C 21.0 °C 1010.5 hPa North 5 km/h 8 km/h 83% 0.00 mm 0.00 W/m2
04:49 25.0 °C 21.0 °C 1010.5 hPa NNE 8 km/h 8 km/h 83% 0.00 mm 0.00 W/m2
04:54 24.0 °C 21.0 °C 1010.5 hPa North 10 km/h 12 km/h 83% 0.00 mm 0.00 W/m2
04:59 24.0 °C 21.0 °C 1010.5 hPa NNE 8 km/h 12 km/h 83% 0.00 mm 0.00 W/m2
05:04 24.0 °C 21.0 °C 1010.8 hPa North 5 km/h 8 km/h 83% 0.00 mm 0.00 W/m2
05:09 24.0 °C 21.0 °C 1010.5 hPa NNE 4 km/h 4 km/h 83% 0.00 mm 0.00 W/m2
05:14 24.0 °C 21.0 °C 1010.5 hPa North 5 km/h 8 km/h 83% 0.00 mm 0.00 W/m2
05:19 24.0 °C 21.0 °C 1010.8 hPa North 7 km/h 12 km/h 84% 0.00 mm 0.00 W/m2
05:24 24.0 °C 21.0 °C 1010.8 hPa North 5 km/h 8 km/h 84% 0.00 mm 0.00 W/m2
05:29 24.0 °C 21.0 °C 1010.8 hPa North 10 km/h 12 km/h 84% 0.00 mm 0.00 W/m2
05:34 24.0 °C 21.0 °C 1010.5 hPa North 9 km/h 12 km/h 84% 0.00 mm 0.00 W/m2
05:39 24.0 °C 21.0 °C 1010.5 hPa NNE 7 km/h 8 km/h 84% 0.00 mm 0.00 W/m2
05:44 24.0 °C 21.0 °C 1010.8 hPa North 6 km/h 8 km/h 85% 0.00 mm 0.00 W/m2
05:49 24.0 °C 21.0 °C 1010.8 hPa North 7 km/h 8 km/h 85% 0.00 mm 0.00 W/m2
05:54 24.0 °C 21.0 °C 1010.8 hPa North 6 km/h 8 km/h 85% 0.00 mm 0.00 W/m2
05:59 24.0 °C 21.0 °C 1010.8 hPa North 6 km/h 8 km/h 85% 0.00 mm 0.00 W/m2
06:04 24.0 °C 21.0 °C 1010.8 hPa NNE 6 km/h 8 km/h 85% 0.00 mm 0.00 W/m2
06:09 24.0 °C 21.0 °C 1010.8 hPa NNE 9 km/h 12 km/h 85% 0.00 mm 0.00 W/m2
06:14 24.0 °C 21.0 °C 1010.8 hPa North 7 km/h 8 km/h 85% 0.00 mm 2.88 W/m2
06:19 24.0 °C 21.0 °C 1010.8 hPa NNE 5 km/h 8 km/h 85% 0.00 mm 7.00 W/m2
06:24 24.0 °C 21.0 °C 1011.2 hPa NNE 8 km/h 8 km/h 85% 0.00 mm 11.76 W/m2
06:29 24.0 °C 21.0 °C 1011.2 hPa NNE 8 km/h 8 km/h 84% 0.00 mm 17.74 W/m2
06:34 24.0 °C 21.0 °C 1011.2 hPa NNE 8 km/h 12 km/h 84% 0.00 mm 22.09 W/m2
06:39 24.0 °C 21.0 °C 1011.5 hPa NNE 6 km/h 8 km/h 84% 0.00 mm 26.53 W/m2
06:44 24.0 °C 21.0 °C 1011.2 hPa NNE 6 km/h 8 km/h 84% 0.00 mm 29.92 W/m2
06:49 24.0 °C 21.0 °C 1011.2 hPa NNE 6 km/h 8 km/h 84% 0.00 mm 32.78 W/m2
06:54 24.0 °C 21.0 °C 1011.5 hPa NNE 6 km/h 8 km/h 83% 0.00 mm 35.64 W/m2
06:59 25.0 °C 21.0 °C 1011.5 hPa NNE 9 km/h 12 km/h 83% 0.00 mm 39.88 W/m2
07:04 25.0 °C 21.0 °C 1011.5 hPa North 7 km/h 12 km/h 83% 0.00 mm 84.28 W/m2
07:09 25.0 °C 21.0 °C 1011.5 hPa NNE 5 km/h 8 km/h 82% 0.00 mm 91.50 W/m2
07:14 25.0 °C 22.0 °C 1011.9 hPa North 7 km/h 8 km/h 82% 0.00 mm 99.92 W/m2
07:19 26.0 °C 22.0 °C 1011.5 hPa North 8 km/h 12 km/h 81% 0.00 mm 109.61 W/m2
07:24 26.0 °C 22.0 °C 1011.5 hPa NNE 8 km/h 8 km/h 80% 0.00 mm 114.87 W/m2
07:29 26.0 °C 22.0 °C 1011.9 hPa NNE 9 km/h 12 km/h 79% 0.00 mm 123.41 W/m2
07:34 26.0 °C 22.0 °C 1011.9 hPa NNE 8 km/h 8 km/h 79% 0.00 mm 134.27 W/m2
07:39 26.0 °C 22.0 °C 1011.9 hPa North 9 km/h 12 km/h 78% 0.00 mm 141.88 W/m2
07:44 26.0 °C 22.0 °C 1011.9 hPa NNW 12 km/h 16 km/h 77% 0.00 mm 156.88 W/m2
07:49 26.0 °C 22.0 °C 1011.9 hPa North 11 km/h 12 km/h 77% 0.00 mm 161.82 W/m2
07:54 26.0 °C 22.0 °C 1011.9 hPa NW 17 km/h 20 km/h 78% 0.00 mm 172.00 W/m2
07:59 26.0 °C 22.0 °C 1011.9 hPa North 17 km/h 20 km/h 77% 0.00 mm 177.82 W/m2
08:04 26.0 °C 22.0 °C 1011.9 hPa North 12 km/h 16 km/h 77% 0.00 mm 193.58 W/m2
08:09 26.0 °C 22.0 °C 1011.9 hPa North 10 km/h 12 km/h 77% 0.00 mm 203.69 W/m2
08:14 27.0 °C 22.0 °C 1011.9 hPa NNW 13 km/h 16 km/h 76% 0.00 mm 214.06 W/m2
08:19 27.0 °C 22.0 °C 1011.9 hPa NW 18 km/h 24 km/h 76% 0.00 mm 221.91 W/m2
08:24 27.0 °C 22.0 °C 1011.9 hPa NW 13 km/h 16 km/h 75% 0.00 mm 237.67 W/m2
08:29 27.0 °C 22.0 °C 1012.2 hPa North 13 km/h 16 km/h 75% 0.00 mm 244.23 W/m2
08:34 27.0 °C 22.0 °C 1011.9 hPa NNW 13 km/h 16 km/h 74% 0.00 mm 256.14 W/m2
08:39 27.0 °C 22.0 °C 1011.9 hPa North 11 km/h 12 km/h 74% 0.00 mm 264.46 W/m2
08:44 27.0 °C 22.0 °C 1012.2 hPa North 13 km/h 16 km/h 73% 0.00 mm 273.49 W/m2
08:49 28.0 °C 22.0 °C 1012.2 hPa North 12 km/h 12 km/h 72% 0.00 mm 288.51 W/m2
08:54 29.0 °C 23.0 °C 1011.9 hPa NNE 9 km/h 12 km/h 70% 0.00 mm 299.69 W/m2
08:59 29.0 °C 23.0 °C 1012.2 hPa NNE 10 km/h 12 km/h 70% 0.00 mm 305.96 W/m2
09:04 29.0 °C 22.0 °C 1012.2 hPa NNE 6 km/h 8 km/h 69% 0.00 mm 313.86 W/m2
09:09 28.0 °C 22.0 °C 1012.2 hPa NW 13 km/h 16 km/h 71% 0.00 mm 311.73 W/m2
09:14 29.0 °C 22.0 °C 1012.2 hPa NW 10 km/h 12 km/h 70% 0.00 mm 314.77 W/m2
09:19 29.0 °C 22.0 °C 1012.2 hPa North 8 km/h 12 km/h 69% 0.00 mm 311.98 W/m2
09:24 29.0 °C 22.0 °C 1012.2 hPa NNE 8 km/h 12 km/h 69% 0.00 mm 329.42 W/m2
09:29 29.0 °C 22.0 °C 1012.2 hPa NW 9 km/h 12 km/h 68% 0.00 mm 333.31 W/m2
09:34 29.0 °C 22.0 °C 1012.2 hPa NW 12 km/h 12 km/h 69% 0.00 mm 337.30 W/m2
09:39 30.0 °C 23.0 °C 1012.2 hPa ESE 7 km/h 8 km/h 67% 0.00 mm 349.00 W/m2
09:44 31.0 °C 23.0 °C 1011.9 hPa SSE 7 km/h 8 km/h 63% 0.00 mm 351.76 W/m2
09:49 31.0 °C 23.0 °C 1012.2 hPa North 9 km/h 12 km/h 63% 0.00 mm 354.94 W/m2
09:54 31.0 °C 23.0 °C 1012.2 hPa NNW 12 km/h 16 km/h 66% 0.00 mm 350.49 W/m2
09:59 30.0 °C 23.0 °C 1012.2 hPa NW 8 km/h 8 km/h 66% 0.00 mm 354.26 W/m2
10:04 30.0 °C 23.0 °C 1012.2 hPa South 14 km/h 16 km/h 66% 0.00 mm 356.14 W/m2
10:09 31.0 °C 23.0 °C 1011.9 hPa WNW 11 km/h 16 km/h 66% 0.00 mm 370.33 W/m2
10:14 31.0 °C 23.0 °C 1012.2 hPa WNW 15 km/h 16 km/h 65% 0.00 mm 370.18 W/m2
10:19 31.0 °C 24.0 °C 1011.9 hPa West 12 km/h 16 km/h 66% 0.00 mm 359.39 W/m2
10:24 30.0 °C 23.0 °C 1011.9 hPa NW 23 km/h 28 km/h 66% 0.00 mm 359.66 W/m2
10:29 31.0 °C 23.0 °C 1011.9 hPa NW 8 km/h 12 km/h 66% 0.00 mm 378.11 W/m2
10:34 31.0 °C 23.0 °C 1011.5 hPa WNW 14 km/h 20 km/h 66% 0.00 mm 377.18 W/m2
10:39 31.0 °C 24.0 °C 1011.5 hPa WNW 14 km/h 16 km/h 66% 0.00 mm 387.73 W/m2
10:44 31.0 °C 24.0 °C 1011.5 hPa WNW 12 km/h 20 km/h 66% 0.00 mm 386.80 W/m2
10:49 31.0 °C 24.0 °C 1011.5 hPa West 10 km/h 12 km/h 65% 0.00 mm 392.03 W/m2
10:54 32.0 °C 24.0 °C 1011.5 hPa SW 10 km/h 12 km/h 65% 0.00 mm 395.09 W/m2
10:59 32.0 °C 24.0 °C 1011.5 hPa West 11 km/h 12 km/h 63% 0.00 mm 410.34 W/m2
11:04 31.0 °C 23.0 °C 1011.5 hPa WNW 12 km/h 16 km/h 63% 0.00 mm 407.45 W/m2
11:09 31.0 °C 24.0 °C 1011.2 hPa WSW 12 km/h 12 km/h 64% 0.00 mm 409.01 W/m2
11:14 32.0 °C 24.0 °C 1011.2 hPa WSW 13 km/h 16 km/h 63% 0.00 mm 415.87 W/m2
11:19 32.0 °C 24.0 °C 1011.2 hPa West 13 km/h 16 km/h 64% 0.00 mm 410.09 W/m2
11:24 32.0 °C 24.0 °C 1010.8 hPa South 12 km/h 16 km/h 62% 0.00 mm 419.71 W/m2
11:29 32.0 °C 24.0 °C 1010.8 hPa WSW 10 km/h 16 km/h 63% 0.00 mm 424.94 W/m2
11:34 32.0 °C 23.0 °C 1010.8 hPa WSW 10 km/h 16 km/h 61% 0.00 mm 424.60 W/m2
11:39 32.0 °C 24.0 °C 1010.8 hPa SSW 13 km/h 16 km/h 64% 0.00 mm 435.10 W/m2
11:44 32.0 °C 24.0 °C 1010.8 hPa SSW 11 km/h 16 km/h 64% 0.00 mm 431.99 W/m2
11:49 32.0 °C 24.0 °C 1010.5 hPa SSW 13 km/h 16 km/h 63% 0.00 mm 438.25 W/m2
11:54 32.0 °C 24.0 °C 1010.5 hPa South 18 km/h 20 km/h 65% 0.00 mm 440.77 W/m2
11:59 32.0 °C 24.0 °C 1010.5 hPa SSW 12 km/h 20 km/h 65% 0.00 mm 436.30 W/m2
12:04 32.0 °C 24.0 °C 1010.5 hPa SSW 14 km/h 16 km/h 64% 0.00 mm 446.11 W/m2
12:09 31.0 °C 24.0 °C 1010.2 hPa South 14 km/h 20 km/h 65% 0.00 mm 441.75 W/m2
12:14 31.0 °C 24.0 °C 1010.2 hPa SSW 15 km/h 20 km/h 64% 0.00 mm 449.19 W/m2
12:19 32.0 °C 24.0 °C 1009.8 hPa SSE 13 km/h 20 km/h 65% 0.00 mm 455.26 W/m2
12:24 32.0 °C 24.0 °C 1009.8 hPa South 10 km/h 12 km/h 65% 0.00 mm 454.06 W/m2
12:29 32.0 °C 24.0 °C 1009.8 hPa South 17 km/h 20 km/h 67% 0.00 mm 447.43 W/m2
12:34 31.0 °C 24.0 °C 1009.5 hPa SSE 17 km/h 20 km/h 67% 0.00 mm 438.62 W/m2
12:39 31.0 °C 24.0 °C 1009.5 hPa SSW 14 km/h 16 km/h 66% 0.00 mm 432.53 W/m2
12:44 31.0 °C 24.0 °C 1009.5 hPa South 14 km/h 16 km/h 67% 0.00 mm 441.26 W/m2
12:49 31.0 °C 24.0 °C 1009.5 hPa South 12 km/h 16 km/h 67% 0.00 mm 447.04 W/m2
12:54 32.0 °C 24.0 °C 1009.1 hPa SSE 14 km/h 16 km/h 65% 0.00 mm 453.62 W/m2
12:59 32.0 °C 24.0 °C 1009.1 hPa South 15 km/h 16 km/h 65% 0.00 mm 453.94 W/m2
13:04 32.0 °C 24.0 °C 1009.1 hPa SSE 15 km/h 16 km/h 63% 0.00 mm 453.99 W/m2
13:09 31.0 °C 23.0 °C 1009.1 hPa SSE 19 km/h 20 km/h 64% 0.00 mm 450.95 W/m2
13:14 32.0 °C 23.0 °C 1008.8 hPa South 14 km/h 16 km/h 63% 0.00 mm 456.92 W/m2
13:19 32.0 °C 24.0 °C 1009.1 hPa South 12 km/h 16 km/h 61% 0.00 mm 447.16 W/m2
13:24 32.0 °C 23.0 °C 1008.8 hPa South 15 km/h 20 km/h 62% 0.00 mm 446.77 W/m2
13:29 32.0 °C 23.0 °C 1008.8 hPa SSW 13 km/h 16 km/h 61% 0.00 mm 440.06 W/m2
13:34 32.0 °C 23.0 °C 1008.8 hPa South 14 km/h 16 km/h 59% 0.00 mm 443.54 W/m2
13:39 33.0 °C 23.0 °C 1008.8 hPa SSW 15 km/h 16 km/h 58% 0.00 mm 445.27 W/m2
13:44 33.0 °C 23.0 °C 1008.5 hPa South 11 km/h 16 km/h 58% 0.00 mm 445.03 W/m2
13:49 33.0 °C 23.0 °C 1008.5 hPa SSW 11 km/h 16 km/h 58% 0.00 mm 426.92 W/m2
13:54 33.0 °C 23.0 °C 1008.5 hPa SSW 15 km/h 20 km/h 57% 0.00 mm 430.45 W/m2
13:59 33.0 °C 23.0 °C 1008.1 hPa SSW 10 km/h 12 km/h 57% 0.00 mm 429.84 W/m2
14:04 34.0 °C 23.0 °C 1008.1 hPa South 14 km/h 16 km/h 57% 0.00 mm 411.27 W/m2
14:09 33.0 °C 23.0 °C 1007.8 hPa South 12 km/h 16 km/h 57% 0.00 mm 406.03 W/m2
14:14 33.0 °C 23.0 °C 1008.1 hPa South 12 km/h 16 km/h 58% 0.00 mm 427.66 W/m2
14:19 33.0 °C 23.0 °C 1007.8 hPa South 13 km/h 16 km/h 57% 0.00 mm 428.32 W/m2
14:24 33.0 °C 23.0 °C 1007.8 hPa South 12 km/h 16 km/h 58% 0.00 mm 410.51 W/m2
14:29 33.0 °C 23.0 °C 1007.8 hPa SSW 11 km/h 12 km/h 57% 0.00 mm 429.42 W/m2
14:34 33.0 °C 23.0 °C 1007.5 hPa South 12 km/h 16 km/h 57% 0.00 mm 375.08 W/m2
14:39 34.0 °C 24.0 °C 1007.5 hPa SSE 12 km/h 16 km/h 57% 0.00 mm 379.21 W/m2
14:44 33.0 °C 24.0 °C 1007.5 hPa South 11 km/h 16 km/h 59% 0.00 mm 360.72 W/m2
14:49 33.0 °C 24.0 °C 1007.5 hPa South 13 km/h 16 km/h 60% 0.00 mm 361.77 W/m2
14:59 33.0 °C 24.0 °C 1007.5 hPa SSW 5 km/h 8 km/h 60% 0.00 mm 371.04 W/m2
15:04 33.0 °C 24.0 °C 1007.5 hPa SSW 12 km/h 16 km/h 60% 0.00 mm 378.99 W/m2
15:09 33.0 °C 24.0 °C 1007.5 hPa South 12 km/h 16 km/h 60% 0.00 mm 373.76 W/m2
15:14 33.0 °C 24.0 °C 1007.1 hPa South 15 km/h 16 km/h 60% 0.00 mm 357.66 W/m2
15:19 33.0 °C 24.0 °C 1007.1 hPa South 13 km/h 16 km/h 60% 0.00 mm 351.27 W/m2
15:24 33.0 °C 24.0 °C 1007.1 hPa South 14 km/h 24 km/h 60% 0.00 mm 348.26 W/m2
15:29 33.0 °C 24.0 °C 1007.1 hPa South 14 km/h 16 km/h 61% 0.00 mm 347.63 W/m2
15:34 33.0 °C 24.0 °C 1007.1 hPa SSW 13 km/h 20 km/h 61% 0.00 mm 346.84 W/m2
15:39 33.0 °C 24.0 °C 1007.1 hPa South 12 km/h 16 km/h 61% 0.00 mm 330.67 W/m2
15:44 33.0 °C 25.0 °C 1007.1 hPa SSW 12 km/h 16 km/h 61% 0.00 mm 318.63 W/m2
15:49 33.0 °C 24.0 °C 1007.1 hPa South 12 km/h 16 km/h 62% 0.00 mm 308.50 W/m2
15:54 33.0 °C 25.0 °C 1007.1 hPa South 10 km/h 16 km/h 62% 0.00 mm 317.41 W/m2
15:59 33.0 °C 25.0 °C 1007.1 hPa SSW 13 km/h 16 km/h 61% 0.00 mm 298.69 W/m2
16:04 33.0 °C 25.0 °C 1007.1 hPa South 13 km/h 16 km/h 62% 0.00 mm 304.25 W/m2
16:09 33.0 °C 25.0 °C 1007.1 hPa SSW 13 km/h 16 km/h 61% 0.00 mm 304.47 W/m2
16:14 33.0 °C 25.0 °C 1007.1 hPa South 14 km/h 20 km/h 62% 0.00 mm 244.59 W/m2
16:19 33.0 °C 24.0 °C 1007.1 hPa SSE 10 km/h 16 km/h 61% 0.00 mm 255.12 W/m2
16:24 33.0 °C 24.0 °C 1007.1 hPa SSE 16 km/h 20 km/h 61% 0.00 mm 235.57 W/m2
16:29 33.0 °C 24.0 °C 1007.1 hPa SE 19 km/h 20 km/h 60% 0.00 mm 230.87 W/m2
16:34 32.0 °C 24.0 °C 1007.5 hPa SE 18 km/h 20 km/h 61% 0.00 mm 224.56 W/m2
16:39 33.0 °C 24.0 °C 1007.5 hPa SSE 17 km/h 20 km/h 61% 0.00 mm 222.92 W/m2
16:44 32.0 °C 23.0 °C 1007.5 hPa SE 17 km/h 20 km/h 62% 0.00 mm 187.66 W/m2
16:49 32.0 °C 23.0 °C 1007.5 hPa SE 14 km/h 20 km/h 62% 0.00 mm 179.00 W/m2
16:54 32.0 °C 24.0 °C 1007.5 hPa SE 15 km/h 20 km/h 62% 0.00 mm 176.94 W/m2
16:59 32.0 °C 24.0 °C 1007.5 hPa SSE 18 km/h 20 km/h 62% 0.00 mm 164.95 W/m2
17:04 32.0 °C 24.0 °C 1007.5 hPa SE 15 km/h 20 km/h 62% 0.00 mm 140.88 W/m2
17:09 32.0 °C 23.0 °C 1007.8 hPa SE 19 km/h 20 km/h 63% 0.00 mm 108.41 W/m2
17:14 32.0 °C 23.0 °C 1007.8 hPa SSE 17 km/h 20 km/h 62% 0.00 mm 76.35 W/m2
17:19 31.0 °C 23.0 °C 1007.5 hPa SSE 13 km/h 16 km/h 62% 0.00 mm 67.56 W/m2
17:24 31.0 °C 23.0 °C 1007.8 hPa SE 17 km/h 20 km/h 62% 0.00 mm 59.79 W/m2
17:29 31.0 °C 23.0 °C 1007.5 hPa SSE 13 km/h 16 km/h 62% 0.00 mm 51.70 W/m2
17:34 31.0 °C 23.0 °C 1007.8 hPa SE 10 km/h 12 km/h 62% 0.00 mm 43.50 W/m2
17:39 31.0 °C 23.0 °C 1007.8 hPa SSE 10 km/h 12 km/h 62% 0.00 mm 34.30 W/m2
17:44 31.0 °C 23.0 °C 1007.8 hPa SE 8 km/h 12 km/h 62% 0.00 mm 26.53 W/m2
17:49 31.0 °C 23.0 °C 1007.8 hPa SE 9 km/h 12 km/h 63% 0.00 mm 20.25 W/m2
17:54 31.0 °C 23.0 °C 1007.8 hPa SE 10 km/h 12 km/h 63% 0.00 mm 12.48 W/m2
17:59 31.0 °C 23.0 °C 1008.1 hPa SE 6 km/h 8 km/h 63% 0.00 mm 7.29 W/m2
18:04 31.0 °C 23.0 °C 1008.1 hPa North 5 km/h 8 km/h 63% 0.00 mm 3.72 W/m2
18:09 31.0 °C 22.0 °C 1008.1 hPa North 4 km/h 8 km/h 61% 0.00 mm 0.69 W/m2
18:14 31.0 °C 22.0 °C 1008.1 hPa ENE 3 km/h 4 km/h 58% 0.00 mm 0.00 W/m2
18:19 31.0 °C 21.0 °C 1008.5 hPa East 8 km/h 12 km/h 58% 0.00 mm 0.00 W/m2
18:24 31.0 °C 22.0 °C 1008.5 hPa SSW 5 km/h 8 km/h 59% 0.00 mm 0.00 W/m2
18:29 30.0 °C 21.0 °C 1008.5 hPa ESE 9 km/h 12 km/h 59% 0.00 mm 0.00 W/m2
18:34 30.0 °C 21.0 °C 1008.5 hPa NNE 13 km/h 20 km/h 59% 0.00 mm 0.00 W/m2
18:39 30.0 °C 21.0 °C 1008.8 hPa NE 14 km/h 16 km/h 59% 0.00 mm 0.00 W/m2
18:44 30.0 °C 21.0 °C 1008.8 hPa NE 9 km/h 16 km/h 60% 0.00 mm 0.00 W/m2
18:49 30.0 °C 21.0 °C 1008.8 hPa NE 13 km/h 16 km/h 60% 0.00 mm 0.00 W/m2
18:54 30.0 °C 21.0 °C 1008.8 hPa NNE 5 km/h 8 km/h 60% 0.00 mm 0.00 W/m2
18:59 30.0 °C 21.0 °C 1008.8 hPa South 5 km/h 8 km/h 60% 0.00 mm 0.00 W/m2
19:04 30.0 °C 21.0 °C 1009.1 hPa NNE 10 km/h 16 km/h 60% 0.00 mm 0.00 W/m2
19:09 30.0 °C 21.0 °C 1009.1 hPa NNE 13 km/h 16 km/h 60% 0.00 mm 0.00 W/m2
19:14 29.0 °C 21.0 °C 1009.1 hPa NE 9 km/h 12 km/h 60% 0.00 mm 0.00 W/m2
19:19 29.0 °C 21.0 °C 1009.1 hPa NE 9 km/h 12 km/h 61% 0.00 mm 0.00 W/m2
19:24 29.0 °C 21.0 °C 1009.5 hPa NNE 17 km/h 24 km/h 62% 0.00 mm 0.00 W/m2
19:29 29.0 °C 21.0 °C 1009.1 hPa NE 10 km/h 16 km/h 62% 0.00 mm 0.00 W/m2
19:34 29.0 °C 21.0 °C 1009.5 hPa NE 11 km/h 12 km/h 63% 0.00 mm 0.00 W/m2
19:39 29.0 °C 21.0 °C 1009.5 hPa NE 12 km/h 16 km/h 63% 0.00 mm 0.00 W/m2
19:44 29.0 °C 21.0 °C 1009.5 hPa NE 12 km/h 16 km/h 63% 0.00 mm 0.00 W/m2
19:49 29.0 °C 21.0 °C 1009.5 hPa SE 4 km/h 8 km/h 64% 0.00 mm 0.00 W/m2
19:54 29.0 °C 21.0 °C 1009.5 hPa NNE 10 km/h 12 km/h 64% 0.00 mm 0.00 W/m2
19:59 29.0 °C 21.0 °C 1009.5 hPa NE 9 km/h 12 km/h 64% 0.00 mm 0.00 W/m2
20:04 29.0 °C 21.0 °C 1009.5 hPa NNE 13 km/h 16 km/h 64% 0.00 mm 0.00 W/m2
20:09 29.0 °C 21.0 °C 1009.5 hPa NNE 4 km/h 8 km/h 64% 0.00 mm 0.00 W/m2
20:14 29.0 °C 21.0 °C 1009.8 hPa NE 8 km/h 12 km/h 64% 0.00 mm 0.00 W/m2
20:19 28.0 °C 21.0 °C 1009.8 hPa NE 7 km/h 12 km/h 65% 0.00 mm 0.00 W/m2
20:24 28.0 °C 21.0 °C 1009.8 hPa ENE 8 km/h 12 km/h 65% 0.00 mm 0.00 W/m2
20:29 28.0 °C 21.0 °C 1009.8 hPa ENE 5 km/h 8 km/h 65% 0.00 mm 0.00 W/m2
20:34 28.0 °C 21.0 °C 1009.8 hPa NE 7 km/h 8 km/h 65% 0.00 mm 0.00 W/m2
20:39 28.0 °C 21.0 °C 1010.2 hPa ENE 8 km/h 12 km/h 65% 0.00 mm 0.00 W/m2
20:44 28.0 °C 21.0 °C 1009.8 hPa NE 6 km/h 12 km/h 65% 0.00 mm 0.00 W/m2
20:49 28.0 °C 21.0 °C 1009.8 hPa NE 5 km/h 8 km/h 65% 0.00 mm 0.00 W/m2
20:54 28.0 °C 21.0 °C 1009.8 hPa NE 9 km/h 12 km/h 66% 0.00 mm 0.00 W/m2
20:59 28.0 °C 21.0 °C 1009.8 hPa NE 6 km/h 8 km/h 66% 0.00 mm 0.00 W/m2
21:04 28.0 °C 21.0 °C 1010.2 hPa North 5 km/h 8 km/h 66% 0.00 mm 0.00 W/m2
21:09 28.0 °C 21.0 °C 1010.2 hPa NNE 8 km/h 12 km/h 67% 0.00 mm 0.00 W/m2
21:14 28.0 °C 21.0 °C 1010.2 hPa North 8 km/h 8 km/h 67% 0.00 mm 0.00 W/m2
21:19 28.0 °C 21.0 °C 1010.5 hPa NNE 6 km/h 8 km/h 67% 0.00 mm 0.00 W/m2
21:24 28.0 °C 21.0 °C 1010.5 hPa NNE 7 km/h 8 km/h 67% 0.00 mm 0.00 W/m2
21:29 28.0 °C 21.0 °C 1010.2 hPa Calm     67% 0.00 mm 0.00 W/m2
21:34 28.0 °C 21.0 °C 1010.5 hPa ENE 4 km/h 4 km/h 67% 0.00 mm 0.00 W/m2
21:39 28.0 °C 21.0 °C 1010.5 hPa ENE 2 km/h 4 km/h 67% 0.00 mm 0.00 W/m2
21:44 28.0 °C 21.0 °C 1010.5 hPa NNE 1 km/h 4 km/h 67% 0.00 mm 0.00 W/m2
21:49 28.0 °C 21.0 °C 1010.5 hPa Calm   4 km/h 66% 0.00 mm 0.00 W/m2
21:54 28.0 °C 21.0 °C 1010.5 hPa Calm     66% 0.00 mm 0.00 W/m2
21:59 28.0 °C 21.0 °C 1010.5 hPa NE 1 km/h 4 km/h 67% 0.00 mm 0.00 W/m2
22:04 28.0 °C 21.0 °C 1010.5 hPa Calm     67% 0.00 mm 0.00 W/m2
22:09 28.0 °C 21.0 °C 1010.5 hPa Calm   4 km/h 67% 0.00 mm 0.00 W/m2
22:14 28.0 °C 22.0 °C 1010.8 hPa Calm     68% 0.00 mm 0.00 W/m2
22:19 28.0 °C 21.0 °C 1010.5 hPa NNE 1 km/h 4 km/h 68% 0.00 mm 0.00 W/m2
22:24 28.0 °C 21.0 °C 1010.5 hPa Calm     68% 0.00 mm 0.00 W/m2
22:29 28.0 °C 21.0 °C 1010.5 hPa Calm   4 km/h 68% 0.00 mm 0.00 W/m2
22:34 28.0 °C 21.0 °C 1010.5 hPa Calm   4 km/h 69% 0.00 mm 0.00 W/m2
22:39 28.0 °C 22.0 °C 1010.8 hPa SE 4 km/h 8 km/h 70% 0.00 mm 0.00 W/m2
22:44 28.0 °C 22.0 °C 1010.8 hPa SE 6 km/h 8 km/h 70% 0.00 mm 0.00 W/m2
22:49 28.0 °C 22.0 °C 1010.8 hPa SSE 2 km/h 4 km/h 71% 0.00 mm 0.00 W/m2
22:54 28.0 °C 22.0 °C 1010.8 hPa SSE 5 km/h 8 km/h 71% 0.00 mm 0.00 W/m2
22:59 28.0 °C 22.0 °C 1010.8 hPa SSE 4 km/h 4 km/h 71% 0.00 mm 0.00 W/m2
23:04 28.0 °C 22.0 °C 1010.8 hPa Calm     72% 0.00 mm 0.00 W/m2
23:09 28.0 °C 22.0 °C 1010.8 hPa Calm     71% 0.00 mm 0.00 W/m2
23:14 28.0 °C 22.0 °C 1010.8 hPa Calm     72% 0.00 mm 0.00 W/m2
23:19 27.0 °C 22.0 °C 1010.8 hPa Calm     72% 0.00 mm 0.00 W/m2
23:24 27.0 °C 22.0 °C 1010.8 hPa SSE 2 km/h 4 km/h 72% 0.00 mm 0.00 W/m2
23:29 27.0 °C 22.0 °C 1010.8 hPa Calm     72% 0.00 mm 0.00 W/m2
23:34 27.0 °C 22.0 °C 1010.8 hPa Calm   4 km/h 73% 0.00 mm 0.00 W/m2
23:39 28.0 °C 22.0 °C 1010.8 hPa SW 1 km/h 4 km/h 73% 0.00 mm 0.00 W/m2
23:44 27.0 °C 22.0 °C 1010.8 hPa NW 6 km/h 8 km/h 73% 0.00 mm 0.00 W/m2
23:49 27.0 °C 22.0 °C 1010.8 hPa WSW 1 km/h 4 km/h 74% 0.00 mm 0.00 W/m2
23:54 27.0 °C 22.0 °C 1010.8 hPa SW 2 km/h 4 km/h 74% 0.00 mm 0.00 W/m2
23:59 27.0 °C 22.0 °C 1010.5 hPa NW 4 km/h 4 km/h 74% 0.00 mm 0.00 W/m2
PIMOHWEATHER Philippines
Compliments of Weather Underground - 2 mb